www.pogodaiklimat.ru

Погода и климат >> Архив погоды >> Габон >> Порт-Жантиль


ПОГОДА в Порт-Жантиле

  • Прогноз погоды в Порт-Жантиле
  • Монитор погоды в Порт-Жантиле

АРХИВ ПОГОДЫ в Порт-Жантиле

Время (UTC), дата Ветер
(напр.,м/с)
 
Видим.   Явления Облачность Т
(С)
Тd
(С)
f
(%)
Тe
(С)
Тes
(С)
Комфортность P
(гПа)
Po
(гПа)
Тmin
(С)
Tmax
(С)
R
(мм)
R24
(мм)
S
(см)
06 12.02 штиль 0 10 км зарница {гроза} 10/4 240 м
[Cb cap Ac trans]
+27.5 +26.1 92 +41 +42 опасность
перегрева
1009.2 1008.3 +27.5
09 12.02 ЮЗ 5 10 км 10/4 300 м
[Cb cap Ac trans]
+30.0 +26.6 82 +46 +48 опасность
перегрева
1011.0 1010.1
12 12.02 ЮЗ 5 15 км гроза без осадков 9/5 300 м
[Cb cap Ac trans]
+31.7 +26.9 76 +49 +52 опасность
перегрева
1010.1 1009.2
15 12.02 ЮЗ 6 15 км гроза без осадков 8/8 300 м
[Cb cap]
+30.5 +26.4 79 +47 +47 опасность
перегрева
1009.0 1008.1
18 12.02 ЮЗ 3 10 км гроза без осадков 10/10 240 м
[Cb cap]
+28.0 +25.8 88 +42 +42 опасность
перегрева
1010.0 1009.1 +31.5
09 13.02 ЮЗ 5 10 км 6/4 300 м
[Cu med, cong Ac trans]
+30.0 +25.9 79 +45 +48 опасность
перегрева
1013.6 1012.7
12 13.02 ЮЗ 5 10 км 3/3 330 м
[Cu med, cong Ci fib]
+31.5 +25.3 70 +46 +53 опасность
перегрева
1011.8 1010.9
15 13.02 Ю 5 15 км 8/8 300 м
[Cb cap]
+31.0 +26.0 75 +46 +47 опасность
перегрева
1010.0 1009.1
06 14.02 ЮВ 3 9000 м слаб. дождь 9/6 240 м
[St Ac As]
+27.0 +25.6 92 +40 +40 очень
душно
1012.5 1011.6 +27.0 0.0
09 14.02 ЮВ 3 15 км {дождь} 3/1 300 м
[Cu hum Ac trans]
+30.4 +25.2 74 +44 +53 опасность
перегрева
1013.7 1012.8
12 14.02 ЮЗ 4 15 км 4/4 300 м
[Cu hum Ac trans]
+32.0 +25.9 70 +47 +55 опасность
перегрева
1012.7 1011.8
15 14.02 ЮЗ 4 10 км 6/6 400 м
[Cu Sc]
+31.5 +25.8 72 +47 +49 опасность
перегрева
1010.4 1009.5
18 14.02 ЮЗ 2 10 км 4/3 300 м
[Sc Ac trans]
+29.7 +25.7 79 +44 +44 опасность
перегрева
1011.4 1010.5 +32.6 0.0
06 15.02 СЗ 2 10 км 8/4 240 м
[Cb cap Ac trans]
+27.5 +26.1 92 +41 +42 опасность
перегрева
1013.1 1012.2 +27.5
09 15.02 штиль 0 10 км 8/4 330 м
[Cb cap Ac trans]
+30.3 +25.4 75 +44 +51 опасность
перегрева
1014.5 1013.6
12 15.02 ЮЗ 3 10 км в посл. час дождь 9/9 330 м
[Cu Sc]
+30.9 +26.3 77 +47 +49 опасность
перегрева
1012.7 1011.8 0.2
15 15.02 З 2 8000 м гроза, ливневой дождь 10/10 240 м
[Cb cap]
+28.4 +25.8 86 +42 +42 опасность
перегрева
1010.9 1010.0
21 15.02 ЮЗ 2 10 км 8/8 300 м
[Cb cap]
+27.9 +26.0 89 +42 +42 опасность
перегрева
1013.8 1012.9
06 16.02 Ю 2 9000 м {дождь} 10/10 240 м
[Cb cap]
+27.0 +24.2 85 +38 +38 очень
душно
1012.4 1011.5 +26.5 8
09 16.02 Ю 4 10 км 8/5 240 м
[Cb cap Cs]
+29.0 +25.9 83 +43 +47 опасность
перегрева
1014.3 1013.4
12 16.02 Ю 5 10 км 8/5 300 м
[Cb cap Ac trans]
+30.0 +25.8 78 +45 +48 опасность
перегрева
1012.8 1011.9
15 16.02 С 4 3000 м дождь 10/10 180 м
[Cb cap]
+24.1 +23.7 98 +33 +33 очень
душно
1011.4 1010.5
18 16.02 Ю 3 4000 м гроза, ливневой дождь 10/3 180 м
[Cb cap Ac As]
+23.9 +23.3 96 +32 +32 очень
душно
1015.5 1014.6 +31.0 60
21 16.02 З 4 8000 м гроза, ливневой дождь 10/3 240 м
[Cb cap As op]
+23.8 +23.4 98 +32 +32 очень
душно
1015.4 1014.5
06 17.02 В 3 10 км 6/3 240 м
[Cu hum Ac trans Ci fib]
+24.1 +23.0 94 +32 +32 очень
душно
1011.0 1010.1 +23.2 69
09 17.02 В 3 15 км 1/1 300 м
[Sc]
+26.8 +23.4 82 +36 +47 очень
душно
1013.3 1012.4
12 17.02 ЮЗ 3 15 км 1/1 300 м
[Cu med, cong]
+30.6 +25.7 75 +45 +61 опасность
перегрева
1012.3 1011.4
15 17.02 ЮЗ 5 15 км 5/3 330 м
[Cu med, cong Ac trans]
+30.2 +25.5 76 +44 +47 опасность
перегрева
1009.9 1009.0
18 17.02 ЮЗ 3 10 км 10/10 240 м
[Cu Sc]
+28.6 +25.3 82 +42 +42 опасность
перегрева
1010.6 1009.7 +31.0
21 17.02 ЮЗ 2 10 км 6/1 300 м
[Sc Ci sp]
+28.0 +25.5 86 +41 +41 опасность
перегрева
1012.0 1011.1
00 18.02 штиль 0 8000 м 4/4 240 м
[Sc]
+28.2 +25.7 86 +42 +42 опасность
перегрева
1012.1 1011.2
06 18.02 штиль 0 8000 м 9/9 240 м
[Sc]
+27.0 +26.3 96 +41 +41 опасность
перегрева
1011.4 1010.5 +26.7
09 18.02 Ю 4 10 км 6/4 330 м
[Cu med, cong Ci sp]
+29.5 +26.4 83 +45 +50 опасность
перегрева
1012.3 1011.4
12 18.02 ЮЗ 5 10 км 3/3 360 м
[Cu med, cong Ci sp]
+31.3 +26.9 78 +49 +57 опасность
перегрева
1010.9 1010.0
15 18.02 ЮЗ 5 10 км гроза без осадков 6/6 240 м
[Cb cap]
+30.5 +26.4 79 +47 +48 опасность
перегрева
1008.5 1007.6
18 18.02 ЮЗ 3 10 км в посл. час гроза {дождь} 6/6 300 м
[Cb cap]
+28.6 +26.7 89 +44 +44 опасность
перегрева
1008.5 1007.6 +32.5 0.1
21 18.02 ЮЗ 4 10 км 10/10 300 м
[Cb cap]
+29.1 +26.5 86 +45 +45 опасность
перегрева
1010.9 1010.0

 

Местоположение метеостанции Порт-Жантиль (Габон): широта -0.70 долгота 8.75 высота над уровнем моря 4 м.

В архиве по умолчанию представлена погода в Порт-Жантиле за последнюю неделю. Архивные данные за месяц целиком и за предыдущие месяцы, начиная с января 2011 года, Вы можете получить, выбрав интересующий диапазон дат из раскрывающегося списка и нажав кнопку "Ввод!".


*Определитесь, кто Вы:
робот инопланетянин человек

Внимание! Время в таблицах - всемирное. Для получения местного времени необходимо прибавить поправку, которая равна 1 ч.

Смотрите также архив погоды в соседних городах и на ближайших метеорологических станциях:

Погода в Либревиле (Габон) (148 км)
Погода в Ламбарене (Габон) (167 км)
Погода в Муиле (Габон) (284 км)
Погода в Бате (Экваториальная Гвинея) (313 км)
Погода в Чибанге (Габон) (348 км)
Погода в Оеме (Габон) (403 км)
Погода в Битаме (Габон) (433 км)
Погода в Ластурвиле (Габон) (442 км)
Погода в Макоку (Габон) (480 км)
Погода в Малабо (Экваториальная Гвинея) (496 км)

Пояснения к столбцам:

Ветер - указаны скорость ветра в м/с - средняя за 10 мин, порывы в срок и между сроками (в фигурных скобках) и направление, откуда дует ветер: С - северный, СВ - северо-восточный, В - восточный, ЮВ - юго-восточный, Ю - южный, ЮЗ - юго-западный, З - западный, СЗ - северо-западный.
Видимость - горизонтальная дальность видимости в метрах или километрах. При видимости от 1 до 10 км при отсутствии осадков обычно наблюдается дымка, при ухудшении видимости до 1 км и менее - туман. В сухую погоду видимость может ухудшаться дымом, пылью или мглою.
Явления - указаны атмосферные явления, наблюдавшиеся в срок или в последний час перед сроком; фигурными скобками обозначены явления, наблюдавшиеся между сроками (за 1-3 часа до срока); квадратными скобками обозначены град или гололедные отложения с указанием их диаметра в мм.
Облачность - указаны через наклонную черту общая и нижняя облачность в баллах и высота нижней границы облаков в метрах; квадратными скобками обозначены формы облаков: Ci - перистые, Cs - перисто-слоистые, Cc - перисто-кучевые, Ac - высококучевые, As - высокослоистые, Sc - слоисто-кучевые, Ns - слоисто-дождевые, Cu - кучевые, Cb - кучево-дождевые. Подробнее классификацию облаков см. в Атласе облаков (PDF).
T - Температура воздуха - температура, измеренная на высоте 2 м над землей.
Td - Температура точки росы - температура, при понижении до которой содержащийся в воздухе водяной пар достигнет насыщения.
f - Относительная влажность воздуха - влажноcть воздуха, измеренная на высоте 2 м над землей.
Te - Эффективная температура - температура, которую ощущает одетый по сезону человек в тени. Характеристика душности погоды. При расчете учитывается влияние влажности воздуха и скорости ветра на теплоощущения человека.
Tes - Эффективная температура на солнце - температура, которую ощущает человек, с поправкой на солнечный нагрев. Характеристика знойности погоды. Зависит от высоты солнца над горизонтом, облачности и скорости ветра. Ночью, в пасмурную погоду, а также при ветре 12 м/с и более поправка равна нулю.
P - Атмосферное давление - приведенное к уровню моря атмосферное давление.
Po - Атмосферное давление - измеренное на уровне метеостанции атмосферное давление.
Tmin - Минимальная температура - минимум температуры воздуха на высоте 2 м над землей.
Tmax - Максимальная температура - максимум температуры воздуха на высоте 2 м над землей.
R - Количество осадков - Количество выпавших осадков за период времени, мм. При наведении курсора мыши на число - период времени, за который выпало указанное количество осадков.
R24 - Количество осадков - Количество выпавших осадков за 24 часа, мм.
S - Снежный покров - Высота снежного покрова, см. При наведении курсора мыши на число - состояние снежного покрова и степень покрытия местности в баллах.